Close Search

Base
°C
Summit
°C

WEATHER AT A GLANCE

Image Slideshow

RMR Village

Revelstoke Mountain Resort -  RMR Village Webcam

Top of The Stoke

Revelstoke Mountain Resort -  Top of The Stoke Webcam

Top of Stellar

Revelstoke Mountain Resort -  Top of Stellar Webcam

Mackenzie Outpost

Revelstoke Mountain Resort -  Mackenzie Outpost Webcam

Ripper

Revelstoke Mountain Resort -  Ripper Webcam
Base
°C
Summit
°C
Wind (Summit)
km/h

Today's Forecast

Subpeak Weather

Time Avg. Air Temp Dew Point Avg. Rel Humidity Avg. 2 Min Wind Speed Max Gust Velocity MGV Time MGV Direction Avg. Spot Wind Velocity
2026-05-06 04:10:006° C-6° C43%28 km/h32 km/h04:07:00W29 km/h
03:10:006° C-6° C42%29 km/h32 km/h03:09:00W27 km/h
02:10:007° C-6° C40%21 km/h24 km/h02:08:00W21 km/h
01:10:006° C-7° C38%20 km/h21 km/h01:07:00W20 km/h
00:10:007° C-7° C39%11 km/h15 km/h00:06:00W12 km/h
23:10:006° C-8° C37%6 km/h8 km/h23:06:00W6 km/h
22:10:006° C-7° C38%9 km/h9 km/h22:08:00NW9 km/h
21:10:005° C-8° C39%6 km/h9 km/h21:09:00N6 km/h
20:10:006° C-8° C38%8 km/h16 km/h20:06:00N6 km/h
19:10:005° C-8° C38%13 km/h18 km/h19:10:00NE10 km/h
18:10:006° C-8° C36%9 km/h20 km/h18:08:00NE5 km/h
17:10:006° C-9° C37%8 km/h13 km/h17:10:00N6 km/h
16:10:006° C-7° C40%13 km/h25 km/h16:09:00NW11 km/h
15:10:005° C-7° C41%5 km/h10 km/h15:08:00NW5 km/h
14:10:006° C-7° C42%5 km/h7 km/h14:09:00W3 km/h
13:10:004° C-7° C46%5 km/h14 km/h13:06:00E7 km/h
12:10:004° C-6° C45%0 km/h2 km/h12:08:00SW0 km/h
11:10:003° C-6° C49%2 km/h10 km/h11:07:00NE5 km/h
10:10:002° C-8° C48%11 km/h14 km/h10:08:00NE12 km/h
09:10:001° C-8° C50%19 km/h26 km/h09:09:00NE21 km/h
08:10:001° C-8° C51%30 km/h32 km/h08:08:00NE27 km/h
07:10:000° C-8° C54%18 km/h26 km/h07:06:00NE20 km/h
06:10:000° C-8° C53%17 km/h33 km/h06:08:00NE21 km/h
05:10:000° C-8° C53%24 km/h35 km/h05:06:00NE25 km/h

Time Avg. Air Temp Dew Point Avg. Rel Humidity Avg. 2 Min Wind Speed Max Gust Velocity MGV Time MGV Direction Avg. Spot Wind Velocity
2026-05-06 04:10:006° C-6° C43%28 km/h32 km/h04:07:00W29 km/h
04:05:006° C-5° C43%30 km/h32 km/h04:03:00W31 km/h
04:00:006° C-6° C43%30 km/h31 km/h03:58:00W29 km/h
03:55:006° C-6° C43%28 km/h31 km/h03:54:00W28 km/h
03:50:006° C-6° C43%29 km/h30 km/h03:49:00W28 km/h
03:45:006° C-6° C43%25 km/h30 km/h03:42:00W26 km/h
03:40:006° C-5° C43%26 km/h30 km/h03:40:00W27 km/h
03:35:006° C-5° C43%28 km/h29 km/h03:35:00W28 km/h
03:30:006° C-5° C43%26 km/h31 km/h03:28:00W27 km/h
03:25:006° C-5° C42%27 km/h30 km/h03:22:00W28 km/h
03:20:006° C-6° C42%27 km/h29 km/h03:20:00W27 km/h
03:15:006° C-6° C42%28 km/h31 km/h03:14:00W29 km/h
03:10:006° C-6° C42%29 km/h32 km/h03:09:00W27 km/h

We value your privacy
We use cookies to enhance your browsing experience, serve personalized ads or content, and analyze our traffic. By clicking "Allow Cookies", you consent to our use of cookies. For additional details view our Privacy Policy.
Cookie preferences

You can control how your data is used on our website. Learn more below about the cookies we use by reviewing our Privacy Policy.

Your cookie preferences have been saved.